| time (UTC) | temp F | wind direction | speed knots | gust knots | rain 1hr in | rain 24hr in | rain mn in | humidity % | barometer mb |
| 20260503173103 | 75 | 130 | 8.7 | 0.0 | 0.00 | 0.00 | 0.00 | 27 | 1012.0 |
| 20260503171851 | 75 | 120 | 10.4 | 0.0 | 0.00 | 0.00 | 0.00 | 27 | |
| 20260503170210 | 77 | 120 | 8.7 | 0.0 | 0.00 | 0.00 | 0.00 | 23 | 1012.0 |
| 20260503160104 | 79 | 130 | 7.8 | 0.0 | 0.00 | 0.00 | 0.00 | 22 | 1012.0 |
| 20260503150103 | 79 | 130 | 7.0 | 0.0 | 0.00 | 0.00 | 0.00 | 22 | 1012.0 |
| 20260503130210 | 77 | 130 | 7.0 | 0.0 | 0.00 | 0.00 | 0.00 | 22 | 1014.0 |
| 20260503100210 | 73 | 0 | 7.0 | 0.0 | 0.00 | 0.00 | 0.00 | 27 | 1016.0 |
| 20260503071849 | 63 | 60 | 4.3 | 0.0 | 0.00 | 0.00 | 0.00 | 42 | |
| 20260503070103 | 63 | 60 | 4.3 | 0.0 | 0.00 | 0.00 | 0.00 | 42 | 1017.0 |
| 20260503060103 | 59 | 110 | 2.6 | 0.0 | 0.00 | 0.00 | 0.00 | 47 | 1017.0 |
| 20260503053103 | 54 | 100 | 0.9 | 0.0 | 0.00 | 0.00 | 0.00 | 58 | 1017.0 |
| 20260503051850 | 52 | 0 | 0.0 | 0.0 | 0.00 | 0.00 | 0.00 | 62 | |
| 20260503043103 | 50 | 70 | 5.2 | 0.0 | 0.00 | 0.00 | 0.00 | 61 | 1017.0 |
| 20260503041851 | 46 | 50 | 4.3 | 0.0 | 0.00 | 0.00 | 0.00 | 65 | |
| 20260503033210 | 48 | 50 | 2.6 | 0.0 | 0.00 | 0.00 | 0.00 | 66 | 1017.0 |
| 20260503031849 | 50 | 40 | 4.3 | 0.0 | 0.00 | 0.00 | 0.00 | 57 | |
| 20260503030211 | 46 | 30 | 1.7 | 0.0 | 0.00 | 0.00 | 0.00 | 65 | 1017.0 |
| 20260503023102 | 48 | 100 | 2.6 | 0.0 | 0.00 | 0.00 | 0.00 | 61 | 1017.0 |
| 20260503021849 | 54 | 160 | 4.3 | 0.0 | 0.00 | 0.00 | 0.00 | 46 | |
| 20260503013103 | 57 | 180 | 6.1 | 0.0 | 0.00 | 0.00 | 0.00 | 44 | 1017.0 |
| 20260503013003 | 57 | 180 | 6.1 | 0.0 | 0.00 | 0.00 | 0.00 | 44 | 1017.0 |
| 20260503011850 | 52 | 180 | 6.1 | 0.0 | 0.00 | 0.00 | 0.00 | 53 | |
| 20260503010104 | 54 | 170 | 7.0 | 0.0 | 0.00 | 0.00 | 0.00 | 50 | 1017.0 |
| 20260503003210 | 55 | 180 | 7.0 | 0.0 | 0.00 | 0.00 | 0.00 | 47 | 1017.0 |
| 20260503001850 | 54 | 180 | 6.1 | 0.0 | 0.00 | 0.00 | 0.00 | 50 | |
| 20260503000211 | 55 | 180 | 7.0 | 0.0 | 0.00 | 0.00 | 0.00 | 47 | 1017.0 |
| 20260502233102 | 57 | 190 | 6.1 | 0.0 | 0.00 | 0.00 | 0.00 | 44 | 1017.0 |
| 20260502231850 | 57 | 170 | 6.1 | 0.0 | 0.00 | 0.00 | 0.00 | 44 | |
| 20260502230209 | 57 | 170 | 6.1 | 0.0 | 0.00 | 0.00 | 0.00 | 44 | 1018.0 |
| 20260502223103 | 57 | 160 | 6.1 | 0.0 | 0.00 | 0.00 | 0.00 | 44 | 1018.0 |
| 20260502221851 | 55 | 160 | 6.1 | 0.0 | 0.00 | 0.00 | 0.00 | 47 | |
| 20260502213102 | 63 | 110 | 6.1 | 0.0 | 0.00 | 0.00 | 0.00 | 39 | 1018.0 |
| 20260502211850 | 61 | 110 | 6.1 | 0.0 | 0.00 | 0.00 | 0.00 | 38 | |
| 20260502203102 | 61 | 90 | 4.3 | 0.0 | 0.00 | 0.00 | 0.00 | 38 | 1018.0 |
| 20260502201850 | 59 | 90 | 4.3 | 0.0 | 0.00 | 0.00 | 0.00 | 41 | |
| 20260502200210 | 61 | 80 | 4.3 | 0.0 | 0.00 | 0.00 | 0.00 | 38 | 1018.0 |
| 20260502193103 | 66 | 80 | 6.1 | 0.0 | 0.00 | 0.00 | 0.00 | 29 | 1018.0 |
| 20260502191850 | 63 | 80 | 6.1 | 0.0 | 0.00 | 0.00 | 0.00 | 36 | |
| 20260502190210 | 66 | 80 | 6.1 | 0.0 | 0.00 | 0.00 | 0.00 | 29 | 1018.0 |
| 20260502183103 | 70 | 70 | 6.1 | 0.0 | 0.00 | 0.00 | 0.00 | 28 | 1018.0 |
| 20260502181850 | 64 | 70 | 6.1 | 0.0 | 0.00 | 0.00 | 0.00 | 36 |